[[{"header":{"parameterUnit":"m.s-1","parameterCategory":1,"la1":30.2991,"la2":30.254,"lo1":-89.0895,"lo2":-89.0444,"dy":0.0017,"dx":0.0017,"nx":28,"ny":28,"refTime":"2025-04-07T09:00:00:Z","depth":0,"parameterNumber":2,"parameterNumberName":"U-component_of_WINDS"},"data":[0,0,0,0,0,0,0,0,0,0,0,0,0,0,0,0,0,0,0,0,0,0,0,0,0,0,0,0,0,0,0,0,0,0,0,0,0,0,0,0,0,0,0,0,0,0,0,0,0,0,0,0,0,0,0,0,0,0,1.8593,1.8593,0,1.8605,1.8605,1.8605,1.857,1.8569,1.8568,1.8567,1.858,1.8581,1.8583,0,0,0,0,0,0,0,0,0,0,0,0,0,1.8542,1.8543,1.8593,1.8593,1.8593,1.8605,1.8605,1.8605,1.857,1.8569,1.8568,1.8566,1.858,1.8581,1.8583,0,0,0,0,0,0,0,0,0,0,0,0,0,1.856,1.8544,1.8593,1.8577,1.8576,1.8605,1.8605,1.8605,1.857,1.8569,1.8567,1.8566,1.8579,1.8581,1.8583,1.8628,0,0,1.8589,1.859,0,0,0,0,0,0,0,0,1.8559,1.8562,1.8579,1.8578,1.8577,1.8584,1.8592,1.8613,1.8571,1.8573,1.8567,1.8565,1.8583,1.8584,1.859,1.8629,1.8629,1.8589,1.8591,1.8591,1.8592,0,0,0,0,0,0,0,1.8558,1.8561,1.8598,1.858,1.8578,1.857,1.8571,1.8596,1.8587,1.8572,1.857,1.8572,1.8582,1.8588,1.859,1.8629,1.8589,1.8591,1.8592,1.8593,1.8706,1.8708,0,0,0,0,0,0,1.8559,1.8561,1.8597,1.8598,1.8564,1.8573,1.8573,1.8584,1.8586,1.8585,1.8573,1.857,1.8586,1.8588,1.8591,1.8644,1.8591,1.8593,1.8595,1.8705,1.8707,1.8709,0,0,0,0,0,0,1.8558,1.8562,1.8597,1.8579,1.8582,1.8575,1.8587,1.8585,1.8591,1.8587,1.8585,1.8581,1.8584,1.8588,1.8619,1.8644,1.8594,1.8596,1.8703,1.8705,1.8708,1.875,0,0,0,0,0,0,1.8556,1.8562,1.8578,1.8579,1.8584,1.8625,1.8588,1.8586,1.8595,1.8591,1.8594,1.8593,1.8583,1.8616,1.8621,1.8646,1.8598,1.87,1.8704,1.8707,1.8747,1.8754,1.8761,0,0,0,0,0,1.8555,1.859,1.8579,1.8584,1.8604,1.8626,1.8629,1.8617,1.8597,1.8614,1.8611,1.8593,1.8641,1.862,1.8625,1.865,1.8699,1.8703,1.8707,1.8744,1.8753,1.8761,0,0,0,0,0,0,1.8592,1.859,1.8578,1.8615,1.8621,1.862,1.8641,1.8626,1.8639,1.8635,1.862,1.8621,1.8655,1.8656,1.8633,1.8695,1.8666,1.8672,1.8693,1.8701,1.8708,1.8707,1.8599,0,0,0,0,0,1.8605,1.8623,1.862,1.8652,1.8656,1.8648,1.8657,1.8648,1.8654,1.8656,1.8656,1.8663,1.8679,1.869,1.8705,1.8747,1.8748,1.8768,1.8775,1.878,1.8785,1.8808,1.8817,1.8722,1.8722,1.8722,0,0,1.8631,1.8632,1.8644,1.866,1.8663,1.8683,1.865,1.8672,1.8687,1.866,1.8689,1.8689,1.8696,1.8733,1.875,1.8735,1.8811,1.8785,1.879,1.8791,1.8813,1.8822,1.883,1.8725,1.8724,1.8724,0,0,1.8688,1.869,1.8718,1.8723,1.8729,1.8723,1.873,1.8732,1.8731,1.8761,1.8741,1.8759,1.8787,1.8793,1.88,1.8862,1.8846,1.8867,1.8903,1.8926,1.8933,1.894,1.8962,1.897,1.8872,1.8872,1.8872,0,1.8719,1.8747,1.8734,1.8757,1.8765,1.8742,1.8771,1.8776,1.8787,1.8793,1.8777,1.8813,1.8816,1.8855,1.887,1.8876,1.8884,1.8866,1.8933,1.8939,1.8945,1.8966,1.8975,1.8874,1.8874,1.8874,1.8874,0,1.8786,1.8806,1.8827,1.8839,1.8849,1.8875,1.8867,1.8879,1.8869,1.8866,1.8897,1.89,1.8916,1.8925,1.8915,1.8962,1.8953,1.8935,1.8906,1.8957,1.8977,1.8984,1.8878,1.8877,1.8876,1.8876,0,0,1.8865,1.887,1.8878,1.8883,1.8889,1.8905,1.893,1.8945,1.8957,1.8966,1.8987,1.9013,1.8997,1.9004,1.8996,1.9016,1.9065,1.8995,1.8995,1.9008,1.9118,1.9131,1.914,1.9055,1.9056,1.9057,1.9117,0,1.8921,1.8964,1.8954,1.8997,1.9015,1.8995,1.9017,1.9024,1.9022,1.9038,1.9036,1.9055,1.9032,1.9037,1.9056,1.9055,1.9086,1.905,1.9075,1.9076,1.9073,1.915,1.9163,1.9219,1.9125,1.9126,1.9127,0,1.8992,1.9004,1.9048,1.9052,1.906,1.908,1.9094,1.9109,1.9117,1.9114,1.9124,1.9112,1.9138,1.911,1.9146,1.9122,1.9131,1.9133,1.9135,1.9136,1.9104,1.9153,1.9237,1.9245,1.9139,1.9138,1.9137,0,1.9046,1.9073,1.9103,1.9108,1.9114,1.9128,1.9131,1.9137,1.9148,1.916,1.9167,1.9183,1.9191,1.9204,1.9196,1.9176,1.9234,1.9205,1.9233,1.9234,1.9245,1.9245,1.9332,1.9253,1.9253,1.9253,1.9252,0,1.9109,1.9137,1.9127,1.9146,1.9177,1.9166,1.9197,1.9198,1.9204,1.9223,1.9207,1.9225,1.9215,1.9233,1.9227,1.9259,1.9263,1.9262,1.926,1.9263,1.9263,1.9268,1.9264,1.9255,1.9254,1.9254,1.9253,0,1.9173,1.9168,1.9199,1.9202,1.9204,1.9227,1.923,1.9248,1.9245,1.927,1.9275,1.9272,1.9292,1.9286,1.9308,1.9305,1.9344,1.9338,1.9342,1.934,1.9368,1.9366,1.9461,1.9473,1.9387,1.9388,1.9389,0,1.9214,1.9235,1.924,1.9252,1.9256,1.9275,1.9285,1.9276,1.9288,1.9299,1.9316,1.9335,1.9349,1.9383,1.9383,1.94,1.9394,1.9426,1.9396,1.9399,1.9394,1.9393,1.9395,1.9432,1.9433,1.9434,1.9434,0,1.9286,1.9283,1.9298,1.9313,1.9326,1.9338,1.9348,1.9358,1.935,1.9364,1.9385,1.9396,1.9419,1.9439,1.9455,1.9459,1.9446,1.9444,1.9451,1.9454,1.9455,1.9455,1.9357,1.9441,1.9441,1.944,1.944,1.944,1.9339,1.9357,1.9364,1.9383,1.9389,1.94,1.9417,1.9417,1.9434,1.9451,1.9445,1.9469,1.9478,1.9498,1.9504,1.9524,1.9511,1.9522,1.9525,1.9527,1.9531,1.9453,1.9527,1.9526,1.9526,1.9526,1.9526,0,1.941,1.9414,1.9431,1.9446,1.9461,1.9447,1.9458,1.9472,1.9493,1.9502,1.9517,1.9541,1.956,1.9562,1.9581,1.9596,1.959,1.9601,1.9599,1.96,1.9541,1.9532,1.9605,1.9605,1.9605,1.9605,1.9605,1.9605,1.9449,1.9479,1.9477,1.9511,1.9515,1.9538,1.9545,1.9555,1.9562,1.959,1.9606,1.9607,1.9614,1.9633,1.965,1.965,1.9658,1.9671,1.9669,1.9613,1.9605,1.9597,1.9589,1.9673,1.9673,1.9727,1.9727,1.9728]},{"header":{"parameterUnit":"m.s-1","parameterCategory":1,"la1":30.2991,"la2":30.254,"lo1":-89.0895,"lo2":-89.0444,"dy":0.0017,"dx":0.0017,"nx":28,"ny":28,"refTime":"2025-04-07T09:00:00:Z","depth":0,"parameterNumber":3,"parameterNumberName":"V-component_of_WINDS"},"data":[0,0,0,0,0,0,0,0,0,0,0,0,0,0,0,0,0,0,0,0,0,0,0,0,0,0,0,0,0,0,0,0,0,0,0,0,0,0,0,0,0,0,0,0,0,0,0,0,0,0,0,0,0,0,0,0,0,0,-5.1482,-5.1483,0,-5.1666,-5.1668,-5.167,-5.1654,-5.1651,-5.1649,-5.1646,-5.1834,-5.1841,-5.1849,0,0,0,0,0,0,0,0,0,0,0,0,0,-5.1115,-5.1122,-5.1481,-5.1484,-5.1486,-5.1665,-5.1668,-5.167,-5.1655,-5.1651,-5.1648,-5.1645,-5.1831,-5.184,-5.1849,0,0,0,0,0,0,0,0,0,0,0,0,0,-5.1284,-5.1124,-5.1481,-5.15,-5.1503,-5.1665,-5.1668,-5.1671,-5.1655,-5.1651,-5.1647,-5.1643,-5.1828,-5.1839,-5.1851,-5.2005,0,0,-5.1885,-5.189,0,0,0,0,0,0,0,0,-5.1275,-5.1298,-5.1495,-5.1499,-5.1503,-5.1633,-5.1608,-5.1783,-5.1657,-5.1598,-5.1646,-5.1641,-5.177,-5.1786,-5.183,-5.2014,-5.2022,-5.1886,-5.1893,-5.1898,-5.1902,0,0,0,0,0,0,0,-5.1263,-5.129,-5.1554,-5.1498,-5.1503,-5.1499,-5.1518,-5.1641,-5.1705,-5.1603,-5.1602,-5.1624,-5.1772,-5.1819,-5.1834,-5.2024,-5.1886,-5.1896,-5.1903,-5.1908,-5.2343,-5.2348,0,0,0,0,0,0,-5.1247,-5.128,-5.1548,-5.156,-5.1376,-5.1509,-5.153,-5.1595,-5.1704,-5.1716,-5.1627,-5.1622,-5.1801,-5.1821,-5.1841,-5.2028,-5.1898,-5.1909,-5.1915,-5.2338,-5.2344,-5.2349,0,0,0,0,0,0,-5.1239,-5.1271,-5.1541,-5.142,-5.1454,-5.152,-5.1592,-5.1601,-5.1648,-5.1723,-5.1734,-5.1664,-5.1799,-5.1825,-5.1964,-5.2034,-5.1914,-5.1924,-5.2333,-5.234,-5.2347,-5.2404,0,0,0,0,0,0,-5.1229,-5.1269,-5.1328,-5.1421,-5.146,-5.1662,-5.1597,-5.1608,-5.1668,-5.1664,-5.176,-5.1772,-5.1798,-5.1947,-5.1975,-5.2048,-5.1933,-5.2327,-5.2336,-5.2344,-5.2396,-5.2412,-5.2425,0,0,0,0,0,-5.1216,-5.1337,-5.1331,-5.1364,-5.1536,-5.1666,-5.1688,-5.1716,-5.1674,-5.1734,-5.1782,-5.1769,-5.2022,-5.1962,-5.1993,-5.207,-5.2323,-5.2334,-5.2344,-5.2389,-5.2409,-5.2425,0,0,0,0,0,0,-5.125,-5.1349,-5.1344,-5.1499,-5.1574,-5.1663,-5.174,-5.1736,-5.1824,-5.1816,-5.1846,-5.1868,-5.2008,-5.2053,-5.1984,-5.2224,-5.2167,-5.2184,-5.219,-5.2209,-5.2224,-5.221,-5.1943,0,0,0,0,0,-5.1276,-5.1373,-5.1454,-5.1583,-5.1621,-5.1674,-5.1731,-5.1746,-5.1825,-5.1857,-5.1914,-5.1991,-5.2088,-5.2151,-5.2244,-5.2402,-5.2422,-5.2471,-5.2485,-5.2497,-5.2512,-5.2598,-5.262,-5.2384,-5.2384,-5.2384,0,0,-5.1329,-5.1396,-5.1455,-5.1591,-5.1651,-5.1751,-5.1701,-5.1808,-5.1882,-5.1873,-5.2008,-5.2053,-5.2141,-5.229,-5.2358,-5.2331,-5.2581,-5.2511,-5.252,-5.2528,-5.2611,-5.2633,-5.2653,-5.2391,-5.239,-5.2389,0,0,-5.1478,-5.1538,-5.1652,-5.1713,-5.1804,-5.1839,-5.1866,-5.1956,-5.1985,-5.2121,-5.2116,-5.2204,-5.2371,-5.2433,-5.2487,-5.2658,-5.2649,-5.2688,-5.2765,-5.2849,-5.2867,-5.2884,-5.2944,-5.2966,-5.2702,-5.2702,-5.2703,0,-5.1533,-5.1683,-5.171,-5.1819,-5.1879,-5.1875,-5.199,-5.2048,-5.2165,-5.2206,-5.2174,-5.2382,-5.2441,-5.2604,-5.2646,-5.269,-5.2721,-5.2677,-5.2862,-5.2879,-5.2895,-5.2953,-5.2976,-5.2707,-5.2706,-5.2706,-5.2705,0,-5.1746,-5.185,-5.1931,-5.2044,-5.2113,-5.2224,-5.2268,-5.2334,-5.2343,-5.238,-5.2519,-5.2589,-5.2696,-5.2736,-5.2746,-5.2901,-5.2881,-5.2856,-5.2798,-5.2921,-5.2976,-5.2999,-5.2712,-5.2711,-5.271,-5.2709,0,0,-5.1922,-5.2048,-5.2077,-5.2128,-5.2229,-5.2309,-5.242,-5.2525,-5.2581,-5.2662,-5.2755,-5.2895,-5.2872,-5.2933,-5.295,-5.3023,-5.3153,-5.2989,-5.2991,-5.3016,-5.3328,-5.3345,-5.3371,-5.3148,-5.3153,-5.3156,-5.332,0,-5.208,-5.2276,-5.2304,-5.2477,-5.2573,-5.257,-5.2667,-5.2738,-5.2776,-5.2863,-5.2905,-5.3004,-5.2966,-5.3003,-5.3075,-5.3122,-5.3216,-5.3111,-5.3234,-5.3238,-5.3212,-5.34,-5.3419,-5.3571,-5.3342,-5.3345,-5.3348,0,-5.2291,-5.2377,-5.256,-5.2647,-5.2688,-5.2774,-5.2872,-5.2955,-5.3036,-5.3058,-5.3126,-5.3133,-5.3247,-5.3185,-5.3342,-5.327,-5.3322,-5.3352,-5.3359,-5.3371,-5.33,-5.3416,-5.362,-5.3642,-5.3382,-5.338,-5.3377,0,-5.24,-5.2562,-5.2692,-5.2736,-5.284,-5.29,-5.2947,-5.3023,-5.3085,-5.317,-5.321,-5.3307,-5.3361,-5.3436,-5.3469,-5.3421,-5.3624,-5.3564,-5.3645,-5.3644,-5.3687,-5.3684,-5.3901,-5.3722,-5.3722,-5.3721,-5.3721,0,-5.2573,-5.2685,-5.2742,-5.2822,-5.2947,-5.2977,-5.31,-5.3144,-5.3212,-5.33,-5.3304,-5.3387,-5.3426,-5.3514,-5.3541,-5.3666,-5.369,-5.3711,-5.3717,-5.371,-5.3708,-5.3744,-5.3735,-5.3727,-5.3726,-5.3725,-5.3724,0,-5.2715,-5.2758,-5.29,-5.2987,-5.3011,-5.3099,-5.3174,-5.3251,-5.3288,-5.34,-5.3427,-5.3486,-5.359,-5.363,-5.3758,-5.3775,-5.392,-5.3917,-5.3892,-5.3894,-5.3972,-5.3963,-5.4219,-5.4254,-5.4053,-5.4055,-5.4056,0,-5.2823,-5.2909,-5.3005,-5.3064,-5.3112,-5.3208,-5.327,-5.3303,-5.3368,-5.3466,-5.3532,-5.3635,-5.372,-5.3886,-5.394,-5.4037,-5.4036,-5.4119,-5.4051,-5.4042,-5.4037,-5.4031,-5.4039,-5.4132,-5.4134,-5.4136,-5.4137,0,-5.3009,-5.3026,-5.3115,-5.3213,-5.3287,-5.3365,-5.3441,-5.3489,-5.3534,-5.3606,-5.3713,-5.3778,-5.3908,-5.4011,-5.4111,-5.4158,-5.4155,-5.4158,-5.4182,-5.4176,-5.4157,-5.4167,-5.3926,-5.4152,-5.415,-5.4149,-5.4148,-5.4148,-5.3137,-5.3213,-5.3292,-5.3392,-5.3452,-5.3523,-5.36,-5.3646,-5.3736,-5.3844,-5.3858,-5.3972,-5.405,-5.4184,-5.4235,-5.4324,-5.4302,-5.4337,-5.4345,-5.4353,-5.4358,-5.4144,-5.4343,-5.4342,-5.4342,-5.4342,-5.4341,0,-5.3322,-5.3373,-5.3465,-5.3571,-5.3649,-5.3639,-5.3723,-5.3789,-5.3889,-5.3962,-5.4046,-5.4168,-5.4267,-5.4328,-5.4428,-5.4488,-5.4489,-5.4513,-5.4508,-5.4519,-5.4372,-5.4342,-5.451,-5.451,-5.451,-5.451,-5.451,-5.451,-5.3428,-5.3556,-5.3582,-5.3739,-5.3789,-5.3901,-5.3949,-5.4014,-5.4073,-5.4209,-5.4291,-5.4331,-5.4399,-5.4504,-5.4594,-5.461,-5.4646,-5.4672,-5.4685,-5.4547,-5.4529,-5.4513,-5.4484,-5.4679,-5.468,-5.4824,-5.4825,-5.4826]}]]